EW6604 Weather Reports


Display with metric or nautical units.
time (UTC)temp
F
wind
direction
speed
MPH
gust
MPH
rain 1hr
in
rain 24hr
in
rain mn
in
humidity
%
barometer
mb
20260901005729 81 61 5.0 7.0 0.00 0.18 0.18 89 1016.9
20260901005212 81 63 5.0 6.0 0.00 0.18 0.18 89 1016.8
20260901004717 82 57 4.0 6.0 0.00 0.18 0.18 89 1016.7
20260901004221 82 59 4.0 7.0 0.00 0.18 0.18 89 1016.7
20260901003745 82 59 5.0 7.0 0.00 0.18 0.18 89 1016.7
20260901003229 82 67 6.0 8.0 0.00 0.18 0.18 88 1016.7
20260901002713 82 60 6.0 8.0 0.00 0.18 0.18 88 1016.6
20260901002218 82 60 6.0 8.0 0.00 0.18 0.18 88 1016.6
20260901001218 82 59 6.0 7.0 0.00 0.18 0.18 87 1016.5
20260901000715 82 61 4.0 7.0 0.00 0.18 0.18 86 1016.5
20260901000219 82 50 5.0 7.0 0.00 0.18 0.18 87 1016.4
20260831235723 83 53 5.0 7.0 0.00 0.18 0.18 87 1016.3
20260831235228 83 39 5.0 7.0 0.00 0.18 0.18 87 1016.3
20260831234712 83 48 5.0 7.0 0.00 0.18 0.18 87 1016.2
20260831234237 83 56 6.0 7.0 0.00 0.18 0.18 87 1016.3
20260831233720 83 49 6.0 7.0 0.00 0.18 0.18 87 1016.3
20260831233246 83 56 6.0 8.0 0.00 0.18 0.18 86 1016.2
20260831232709 83 56 6.0 8.0 0.00 0.18 0.18 85 1016.2
20260831232234 83 55 7.0 9.0 0.00 0.18 0.18 86 1016.3
20260831231718 83 68 7.0 10.0 0.00 0.18 0.18 84 1016.3
20260831231227 83 80 7.0 11.0 0.00 0.18 0.18 85 1016.4
20260831230712 84 75 8.0 11.0 0.00 0.18 0.18 84 1016.5
20260831230218 84 77 8.0 11.0 0.00 0.18 0.18 85 1016.5
20260831225721 84 74 7.0 10.0 0.00 0.18 0.18 85 1016.5
20260831225226 84 92 8.0 10.0 0.00 0.18 0.18 84 1016.5
20260831224730 84 80 7.0 10.0 0.00 0.18 0.18 84 1016.6
20260831224213 84 87 8.0 10.0 0.00 0.18 0.18 84 1016.5
20260831223718 84 85 7.0 10.0 0.00 0.18 0.18 85 1016.5
20260831223223 84 86 8.0 10.0 0.00 0.18 0.18 85 1016.5
20260831222727 84 76 7.0 12.0 0.00 0.18 0.18 84 1016.5
20260831222212 84 77 10.0 12.0 0.00 0.18 0.18 84 1016.4
20260831221721 84 80 8.0 11.0 0.00 0.18 0.18 85 1016.4
20260831221226 84 77 6.0 11.0 0.00 0.18 0.18 85 1016.5
20260831220722 84 80 7.0 11.0 0.00 0.18 0.18 85 1016.5
20260831220227 84 78 8.0 11.0 0.00 0.18 0.18 85 1016.5
20260831215711 84 87 8.0 12.0 0.00 0.18 0.18 86 1016.7
20260831215217 84 70 9.0 11.0 0.00 0.18 0.18 86 1016.7
20260831214721 84 66 9.0 14.0 0.00 0.18 0.18 86 1016.7
20260831214226 84 69 10.0 14.0 0.00 0.18 0.18 86 1016.6
20260831213710 84 68 11.0 15.0 0.00 0.18 0.18 86 1016.5
20260831213215 84 75 10.0 15.0 0.00 0.18 0.18 87 1016.5
20260831212719 84 68 11.0 14.0 0.00 0.18 0.18 86 1016.5
20260831212228 84 78 11.0 14.0 0.00 0.18 0.18 87 1016.5
20260831211713 84 59 12.0 16.0 0.01 0.18 0.18 87 1016.6
20260831211217 84 77 14.0 16.0 0.02 0.18 0.18 86 1016.5
20260831210721 84 66 12.0 14.0 0.02 0.18 0.18 88 1016.5
20260831210227 83 61 10.0 12.0 0.02 0.18 0.18 88 1016.5
20260831205711 83 63 8.0 10.0 0.03 0.18 0.18 90 1016.4
20260831205217 82 48 6.0 8.0 0.03 0.18 0.18 90 1016.4
20260831204741 82 43 4.0 7.0 0.04 0.18 0.18 90 1016.5
20260831204224 81 30 4.0 6.0 0.06 0.18 0.18 90 1016.5
20260831203709 81 35 4.0 5.0 0.08 0.18 0.18 90 1016.5
20260831203215 81 46 2.0 3.0 0.13 0.18 0.18 91 1016.6
20260831202723 80 108 0.0 2.0 0.17 0.18 0.18 91 1016.7
20260831202228 81 106 1.0 2.0 0.18 0.18 0.18 92 1016.7
20260831201713 81 122 1.0 2.0 0.17 0.17 0.17 92 1016.7
20260831201218 81 114 1.0 2.0 0.16 0.16 0.16 92 1016.7
20260831200725 81 190 0.0 2.0 0.16 0.16 0.16 92 1016.8
20260831200210 81 187 1.0 3.0 0.16 0.16 0.16 91 1016.9
20260831195716 81 126 1.0 3.0 0.15 0.15 0.15 90 1016.8
20260831195220 81 177 2.0 7.0 0.15 0.15 0.15 90 1016.8
20260831194725 81 79 4.0 9.0 0.14 0.14 0.14 90 1016.8
20260831194210 81 70 5.0 17.0 0.12 0.12 0.12 89 1016.8
20260831193736 81 43 11.0 17.0 0.10 0.10 0.10 89 1016.6
20260831193219 81 53 12.0 17.0 0.05 0.05 0.05 90 1016.4
20260831192745 81 42 13.0 17.0 0.01 0.01 0.01 89 1016.4
20260831192213 82 29 11.0 16.0 0.00 0.00 0.00 87 1016.6
20260831191738 82 360 13.0 18.0 0.00 0.00 0.00 86 1016.6
20260831191222 82 360 13.0 18.0 0.00 0.00 0.00 87 1016.7
20260831190727 84 25 11.0 16.0 0.00 0.00 0.00 85 1016.7
20260831190210 84 321 2.0 5.0 0.00 0.00 0.00 83 1016.8
20260831185714 84 263 0.0 1.0 0.00 0.00 0.00 82 1016.8
20260831185219 84 202 0.0 1.0 0.00 0.00 0.00 83 1016.7
20260831184724 84 189 0.0 1.0 0.00 0.00 0.00 82 1016.7
20260831184228 84 202 1.0 4.0 0.00 0.00 0.00 82 1016.7
20260831183713 85 143 2.0 4.0 0.00 0.00 0.00 81 1016.8
20260831183219 85 96 2.0 7.0 0.00 0.00 0.00 79 1016.8
20260831182727 85 103 2.0 7.0 0.00 0.00 0.00 78 1016.7
20260831182212 85 84 5.0 9.0 0.00 0.00 0.00 76 1016.8
20260831181717 85 79 6.0 9.0 0.00 0.00 0.00 79 1016.9
20260831181221 84 76 6.0 9.0 0.00 0.00 0.00 79 1017.0
20260831180717 84 66 8.0 10.0 0.00 0.00 0.00 78 1017.1
20260831180242 85 60 8.0 10.0 0.00 0.00 0.00 80 1017.1
20260831175725 85 61 8.0 10.0 0.00 0.00 0.00 79 1017.2
20260831175210 85 62 9.0 14.0 0.00 0.00 0.00 78 1017.3
20260831174716 85 60 12.0 14.0 0.00 0.00 0.00 77 1017.3
20260831174221 86 47 5.0 8.0 0.00 0.00 0.00 80 1017.3
20260831173745 86 30 1.0 1.0 0.00 0.00 0.00 81 1017.3
20260831173229 85 68 0.0 2.0 0.00 0.00 0.00 81 1017.3
20260831172717 84 74 1.0 4.0 0.00 0.00 0.00 83 1017.4
20260831172222 84 75 2.0 5.0 0.00 0.00 0.00 85 1017.6
20260831171727 83 42 3.0 8.0 0.00 0.00 0.00 85 1017.7
20260831171213 83 51 5.0 11.0 0.00 0.00 0.00 85 1017.7
20260831170718 83 37 8.0 12.0 0.00 0.00 0.00 84 1017.8
20260831170223 83 44 10.0 12.0 0.00 0.00 0.00 83 1017.9
20260831165727 84 43 10.0 12.0 0.00 0.00 0.00 82 1017.9
20260831165232 84 51 9.0 14.0 0.00 0.00 0.00 83 1018.0
20260831164716 85 49 10.0 15.0 0.00 0.00 0.00 81 1018.1
20260831164221 87 55 11.0 15.0 0.00 0.00 0.00 79 1018.1
20260831163724 88 49 2.0 4.0 0.00 0.00 0.00 75 1018.0
20260831163211 87 332 1.0 3.0 0.00 0.00 0.00 75 1018.0
20260831162716 87 317 1.0 3.0 0.00 0.00 0.00 75 1018.1
20260831162221 87 347 1.0 3.0 0.00 0.00 0.00 77 1018.2
20260831161745 87 314 1.0 3.0 0.00 0.00 0.00 76 1018.2
20260831161250 87 310 1.0 2.0 0.00 0.00 0.00 75 1018.2
20260831160746 86 325 1.0 3.0 0.00 0.00 0.00 74 1018.3
20260831160216 86 325 1.0 3.0 0.00 0.00 0.00 75 1018.4
20260831155719 86 329 0.0 2.0 0.00 0.00 0.00 74 1018.4
20260831155244 86 330 1.0 2.0 0.00 0.00 0.00 78 1018.6
20260831154711 86 328 2.0 2.0 0.00 0.00 0.00 79 1018.6
20260831154216 85 307 2.0 2.0 0.00 0.00 0.00 76 1018.7
20260831153740 85 319 1.0 2.0 0.00 0.00 0.00 78 1018.7
20260831153224 85 326 1.0 3.0 0.00 0.00 0.00 80 1018.7
20260831152748 85 308 1.0 3.0 0.00 0.00 0.00 80 1018.6
20260831152211 84 338 1.0 4.0 0.00 0.00 0.00 83 1018.5
20260831151716 84 336 3.0 4.0 0.00 0.00 0.00 84 1018.6
20260831151220 85 332 3.0 5.0 0.00 0.00 0.00 84 1018.5
20260831150744 84 359 2.0 5.0 0.00 0.00 0.00 84 1018.5
20260831150245 84 340 3.0 5.0 0.00 0.00 0.00 85 1018.5
20260831145746 84 340 1.0 3.0 0.00 0.00 0.00 85 1018.5
20260831145210 84 333 2.0 5.0 0.00 0.00 0.00 85 1018.5
20260831144714 84 9 2.0 6.0 0.00 0.00 0.00 86 1018.4
20260831144217 84 321 3.0 5.0 0.00 0.00 0.00 86 1018.4
20260831143720 84 4 2.0 4.0 0.00 0.00 0.00 87 1018.3
20260831143228 83 2 2.0 4.0 0.00 0.00 0.00 86 1018.2
20260831142731 83 355 3.0 4.0 0.00 0.00 0.00 87 1018.3
20260831142235 83 331 3.0 4.0 0.00 0.00 0.00 87 1018.3
20260831141737 83 5 1.0 4.0 0.00 0.00 0.00 88 1018.3
20260831141221 83 19 2.0 4.0 0.00 0.00 0.00 88 1018.3
20260831140719 83 354 3.0 4.0 0.00 0.00 0.00 88 1018.2
20260831140224 82 355 2.0 4.0 0.00 0.00 0.00 89 1018.1
20260831135728 82 15 2.0 4.0 0.00 0.00 0.00 89 1018.1
20260831135233 82 8 2.0 4.0 0.00 0.00 0.00 90 1018.0
20260831134715 82 11 3.0 4.0 0.00 0.00 0.00 90 1017.9
20260831134219 82 16 3.0 4.0 0.00 0.00 0.00 90 1018.0
20260831133724 82 4 2.0 4.0 0.00 0.00 0.00 90 1018.0
20260831133248 82 357 2.0 3.0 0.00 0.00 0.00 90 1017.9
20260831132711 82 2 2.0 3.0 0.00 0.00 0.00 90 1017.9
20260831132216 82 2 2.0 3.0 0.00 0.00 0.00 91 1017.8
20260831131725 81 2 1.0 2.0 0.00 0.00 0.00 91 1017.8
20260831131228 81 2 1.0 4.0 0.00 0.00 0.00 92 1017.7
20260831130731 81 21 3.0 4.0 0.00 0.00 0.00 92 1017.7
20260831130235 81 11 2.0 4.0 0.00 0.00 0.00 92 1017.7
20260831125718 81 4 2.0 3.0 0.00 0.00 0.00 92 1017.7
20260831125242 81 15 1.0 3.0 0.00 0.00 0.00 92 1017.6
20260831124725 80 2 2.0 3.0 0.00 0.00 0.00 92 1017.6
20260831124230 80 319 1.0 3.0 0.00 0.00 0.00 92 1017.5
20260831123714 80 329 1.0 2.0 0.00 0.00 0.00 92 1017.5
20260831123217 80 16 1.0 2.0 0.00 0.00 0.00 93 1017.5
20260831122722 80 17 1.0 3.0 0.00 0.00 0.00 93 1017.4
20260831122225 79 38 2.0 3.0 0.00 0.00 0.00 93 1017.4
20260831121749 79 53 1.0 3.0 0.00 0.00 0.00 93 1017.5
20260831121250 79 47 3.0 3.0 0.00 0.00 0.00 94 1017.4
20260831120743 79 32 2.0 4.0 0.00 0.00 0.00 94 1017.4
20260831120226 79 42 3.0 4.0 0.00 0.00 0.00 94 1017.4
20260831115711 79 44 3.0 4.0 0.00 0.00 0.00 94 1017.3
20260831115215 78 47 3.0 4.0 0.00 0.00 0.00 94 1017.2
20260831114223 78 56 3.0 4.0 0.00 0.00 0.00 95 1017.1
20260831113728 78 61 3.0 4.0 0.00 0.00 0.00 95 1017.1
20260831113212 76 121 0.0 3.0 0.00 0.00 0.00 94 1017.0
20260831112717 77 111 0.0 4.0 0.00 0.00 0.00 95 1017.0
20260831112240 77 49 3.0 4.0 0.00 0.00 0.00 96 1016.8
20260831111724 77 55 2.0 3.0 0.00 0.00 0.00 95 1016.8
20260831111228 76 141 0.0 0.0 0.00 0.00 0.00 95 1016.7
20260831110713 76 141 0.0 0.0 0.00 0.00 0.00 95 1016.6
20260831110217 76 143 0.0 0.0 0.00 0.00 0.00 95 1016.6
20260831105723 76 143 0.0 0.0 0.00 0.00 0.00 95 1016.5
20260831105227 76 143 0.0 0.0 0.00 0.00 0.00 95 1016.5
20260831104713 76 143 0.0 0.0 0.00 0.00 0.00 95 1016.5
20260831104236 76 142 0.0 0.0 0.00 0.00 0.00 95 1016.5
20260831103718 76 143 0.0 0.0 0.00 0.00 0.00 95 1016.5
20260831103223 77 141 0.0 0.0 0.00 0.00 0.00 95 1016.4
20260831102726 76 144 0.0 0.0 0.00 0.00 0.00 95 1016.4
20260831102250 77 118 0.0 0.0 0.00 0.00 0.00 95 1016.4
20260831101714 76 144 0.0 0.0 0.00 0.00 0.00 95 1016.3
20260831101217 76 145 0.0 0.0 0.00 0.00 0.00 95 1016.2
20260831100712 77 145 0.0 0.0 0.00 0.00 0.00 95 1016.2
20260831100218 77 145 0.0 0.0 0.00 0.00 0.00 96 1016.2
20260831095723 76 145 0.0 0.0 0.00 0.00 0.00 96 1016.2
20260831094719 77 144 0.0 0.0 0.00 0.00 0.00 96 1016.4
20260831094244 76 143 0.0 0.0 0.00 0.00 0.00 95 1016.4
20260831093728 76 144 0.0 0.0 0.00 0.00 0.00 95 1016.3
20260831093213 76 144 0.0 0.0 0.00 0.00 0.00 95 1016.4
20260831092718 76 144 0.0 0.0 0.00 0.00 0.00 95 1016.4
20260831092223 76 144 0.0 0.0 0.00 0.00 0.00 95 1016.4
20260831091727 76 144 0.0 0.0 0.00 0.00 0.00 95 1016.4
20260831091216 76 144 0.0 0.0 0.00 0.00 0.00 96 1016.3
20260831090720 76 144 0.0 0.0 0.00 0.00 0.00 96 1016.2
20260831090226 76 144 0.0 0.0 0.00 0.00 0.00 95 1016.1
20260831085711 75 144 0.0 0.0 0.00 0.00 0.00 95 1016.1
20260831085216 75 144 0.0 0.0 0.00 0.00 0.00 95 1016.1
20260831084721 75 144 0.0 0.0 0.00 0.00 0.00 95 1016.1
20260831084226 75 144 0.0 0.0 0.00 0.00 0.00 95 1016.1
20260831083711 75 144 0.0 0.0 0.00 0.00 0.00 95 1016.2
20260831083216 75 144 0.0 0.0 0.00 0.00 0.00 95 1016.2
20260831082720 75 144 0.0 0.0 0.00 0.00 0.00 95 1016.2
20260831082245 76 144 0.0 0.0 0.00 0.00 0.00 95 1016.3
20260831081713 76 144 0.0 0.0 0.00 0.00 0.00 95 1016.3
20260831081218 76 144 0.0 0.0 0.00 0.00 0.00 95 1016.5
20260831080714 76 144 0.0 0.0 0.00 0.00 0.00 95 1016.5
20260831080239 76 144 0.0 0.0 0.00 0.00 0.00 95 1016.5
20260831075723 76 144 0.0 0.0 0.00 0.00 0.00 95 1016.5
20260831075228 75 144 0.0 0.0 0.00 0.00 0.00 95 1016.4
20260831074713 75 144 0.0 0.0 0.00 0.00 0.00 95 1016.4
20260831074236 75 144 0.0 0.0 0.00 0.00 0.00 95 1016.4
20260831073722 76 144 0.0 0.0 0.00 0.00 0.00 95 1016.4
20260831073228 75 144 0.0 0.0 0.00 0.00 0.00 95 1016.4
20260831072715 76 144 0.0 0.0 0.00 0.00 0.00 94 1016.5
20260831072222 76 144 0.0 0.0 0.00 0.00 0.00 95 1016.6
20260831071711 76 144 0.0 0.0 0.00 0.00 0.00 95 1016.7
20260831071216 76 144 0.0 0.0 0.00 0.00 0.00 95 1016.7
20260831070721 76 144 0.0 0.0 0.00 0.00 0.00 95 1016.8
20260831070246 76 144 0.0 0.0 0.00 0.00 0.00 95 1016.8
20260831065730 76 144 0.0 1.0 0.00 0.00 0.00 95 1016.9
20260831065215 76 144 0.0 1.0 0.00 0.00 0.00 94 1016.9
20260831064720 76 144 1.0 1.0 0.00 0.00 0.00 95 1016.8
20260831064225 76 144 1.0 1.0 0.00 0.00 0.00 95 1016.8
20260831063730 76 144 0.0 1.0 0.00 0.00 0.00 95 1016.9
20260831063235 76 144 1.0 2.0 0.00 0.00 0.00 94 1016.9
20260831062719 76 144 1.0 2.0 0.00 0.00 0.00 94 1017.0
20260831062224 76 144 0.0 0.0 0.00 0.00 0.00 94 1017.1
20260831061720 76 144 0.0 0.0 0.00 0.00 0.00 94 1017.0
20260831061229 76 144 0.0 0.0 0.00 0.00 0.00 94 1017.0
20260831060746 76 144 0.0 0.0 0.00 0.00 0.00 94 1017.0
20260831060250 76 144 0.0 0.0 0.00 0.00 0.00 94 1017.1
20260831055713 76 144 0.0 0.0 0.00 0.00 0.00 94 1017.1
20260831055218 76 141 0.0 0.0 0.00 0.00 0.00 94 1017.1
20260831054723 77 141 0.0 0.0 0.00 0.00 0.00 93 1017.1
20260831054228 77 141 0.0 0.0 0.00 0.00 0.00 93 1017.1
20260831053711 77 141 0.0 0.0 0.00 0.00 0.00 93 1017.1
20260831053216 77 141 0.0 0.0 0.00 0.00 0.00 93 1017.1
20260831052720 78 141 0.0 0.0 0.00 0.00 0.00 93 1017.2
20260831052225 78 141 0.0 0.0 0.00 0.00 0.00 93 1017.2
20260831051730 78 141 0.0 1.0 0.00 0.00 0.00 93 1017.1
20260831051219 79 136 0.0 3.0 0.00 0.00 0.00 93 1017.1
20260831050744 79 136 0.0 3.0 0.00 0.00 0.00 93 1017.2
20260831050228 79 104 1.0 3.0 0.00 0.00 0.00 93 1017.2
20260831045733 79 74 2.0 3.0 0.00 0.00 0.00 93 1017.2
20260831045217 79 68 2.0 4.0 0.00 0.00 0.00 93 1017.2
20260831044723 79 50 3.0 4.0 0.00 0.00 0.00 93 1017.2
20260831044228 79 44 3.0 4.0 0.00 0.00 0.00 93 1017.1
20260831043733 79 39 3.0 4.0 0.00 0.00 0.00 93 1017.1
20260831043217 79 37 2.0 5.0 0.00 0.00 0.00 93 1017.1
20260831042742 79 43 3.0 5.0 0.00 0.00 0.00 92 1017.1
20260831042228 80 40 2.0 3.0 0.00 0.00 0.00 93 1017.1
20260831041714 80 54 2.0 3.0 0.00 0.00 0.00 93 1017.2
20260831041241 80 51 2.0 3.0 0.00 0.00 0.00 93 1017.2
20260831040716 80 49 1.0 2.0 0.00 0.00 0.00 93 1017.1
20260831040237 80 66 1.0 3.0 0.00 0.00 0.00 93 1017.1
20260831035719 79 53 1.0 3.0 0.00 0.00 0.00 92 1017.1
20260831035244 79 55 2.0 4.0 0.00 0.00 0.00 92 1017.1
20260831034727 79 58 3.0 4.0 0.00 0.00 0.00 92 1017.2
20260831034213 79 67 3.0 5.0 0.00 0.00 0.00 92 1017.3
20260831033737 79 52 3.0 6.0 0.00 0.00 0.00 92 1017.2
20260831033241 79 44 5.0 6.0 0.00 0.00 0.00 92 1017.2
20260831032725 80 41 5.0 6.0 0.00 0.00 0.00 92 1017.2
20260831032214 80 44 5.0 6.0 0.00 0.00 0.00 92 1017.2
20260831031718 80 47 4.0 5.0 0.00 0.00 0.00 91 1017.3
20260831031223 80 47 4.0 6.0 0.00 0.00 0.00 91 1017.3
20260831030728 81 49 4.0 5.0 0.00 0.00 0.00 91 1017.4
20260831030212 81 46 4.0 6.0 0.00 0.00 0.00 91 1017.4
20260831025717 81 59 4.0 6.0 0.00 0.00 0.00 91 1017.4
20260831025221 81 61 4.0 5.0 0.00 0.00 0.00 91 1017.4
20260831024726 81 51 4.0 5.0 0.00 0.00 0.00 90 1017.4
20260831024211 81 62 4.0 5.0 0.00 0.00 0.00 90 1017.4
20260831023716 81 54 4.0 5.0 0.00 0.00 0.00 90 1017.5
20260831023221 81 75 4.0 5.0 0.00 0.00 0.00 89 1017.5
20260831022729 81 53 4.0 5.0 0.00 0.00 0.00 90 1017.5
20260831022213 81 34 4.0 5.0 0.00 0.00 0.00 89 1017.5
20260831021718 81 35 4.0 5.0 0.00 0.00 0.00 89 1017.5
20260831021222 81 49 3.0 4.0 0.00 0.00 0.00 89 1017.6
20260831020739 81 37 4.0 5.0 0.00 0.00 0.00 88 1017.5
20260831020223 81 30 4.0 5.0 0.00 0.00 0.00 88 1017.7
20260831015728 81 32 4.0 5.0 0.00 0.00 0.00 88 1017.7
20260831015232 81 37 4.0 5.0 0.00 0.00 0.00 88 1017.7
20260831014717 82 27 3.0 4.0 0.00 0.00 0.00 88 1017.8
20260831014221 82 49 3.0 4.0 0.00 0.00 0.00 87 1017.9
20260831013726 82 74 2.0 3.0 0.00 0.00 0.00 87 1017.9
20260831013230 82 71 1.0 3.0 0.00 0.00 0.00 88 1017.8
20260831012719 82 61 3.0 5.0 0.00 0.00 0.00 87 1017.7
20260831012224 82 61 3.0 5.0 0.00 0.00 0.00 87 1017.7
20260831011729 82 59 3.0 5.0 0.00 0.00 0.00 88 1017.6
20260831011213 82 58 3.0 5.0 0.00 0.00 0.00 86 1017.6
20260831010718 82 55 3.0 5.0 0.00 0.00 0.00 87 1017.6
20260831010223 82 57 3.0 4.0 0.00 0.00 0.00 87 1017.6